GFSFLT1_con_mlcape_057.txt.gz
CAPE
559 491 382 289 180 221 174 217 439 639 645 534 649 1031 725 430 995 1011 372 321 43 165 859 1144 1123 1358 1603 1749 1596 1268 1723 1244 1393
553 557 566 439 233 190 154 210 344 582 767 676 708 771 1037 921 426 1193 1189 256 507 601 420 1041 1277 1404 1394 1780 1669 1362 1086 1855 1792
183 472 692 588 363 226 180 167 267 402 863 918 965 1013 1159 1220 1060 480 1169 1272 343 227 720 978 771 1553 1538 1548 1780 1693 1493 1411 2320
55 209 720 726 515 291 229 164 262 375 540 1101 1306 1421 1160 1524 1794 1456 753 1329 1424 392 188 734 2305 1991 1949 1674 1510 1910 2098 1620 1776
13 87 824 837 731 413 298 227 203 365 589 932 1215 1350 1656 1396 1780 2356 1798 1034 1069 1452 593 312 856 2174 2358 1919 1626 1684 1785 1910 1906
0 51 692 876 900 576 437 308 273 397 446 830 1096 1468 1567 1955 1741 1917 2393 2103 1316 1093 1331 900 638 820 1960 2216 1958 1904 1656 1494 2075
0 0 395 770 990 788 617 462 353 431 435 574 1256 1349 1733 1793 2206 2261 2278 2574 2316 1531 1429 1419 1382 1535 1320 2128 2175 1931 1856 1873 1637
0 0 198 706 870 1035 891 731 491 438 523 560 677 1734 1868 2022 2233 2485 2451 2377 2574 2471 1668 1911 1792 1602 2375 2311 2297 2204 2014 1925 1996
0 90 219 523 657 937 1064 1056 882 692 646 788 957 1013 2024 2255 2592 2617 2570 2601 2585 2769 2681 1992 2089 2512 2058 2392 2605 2579 2211 2191 2205
0 0 0 0 0 114 959 1166 1263 1205 1126 1003 1157 1380 1399 2219 2577 2737 2783 2867 2877 2847 2822 2868 2632 2295 2688 2599 2701 2579 2392 2344 2388
0 0 0 0 0 0 0 1296 1545 1427 1422 1551 1414 1443 1754 1759 2347 2710 2815 2858 2954 2890 2924 2941 2973 2958 2774 2852 2979 2821 2478 2402 2682
154 158 203 191 40 10 0 0 240 2019 1742 1741 1944 1972 1899 2013 2355 2656 2865 2857 2959 3058 3052 3072 3015 3131 3125 3050 3077 2896 2795 2535 2713
178 348 462 594 611 398 20 12 0 756 2239 2153 2032 2037 2398 2543 2491 2664 2763 3007 3057 3264 3251 3191 3249 3186 3273 3247 3132 3192 2879 2766 2953
97 116 368 783 996 1133 1143 437 40 0 584 1990 2377 2363 1878 2172 2626 2794 3044 3064 3249 3316 3484 3538 3448 3434 3393 3406 3532 3500 3100 2838 3127
0 0 49 357 878 1499 1940 1451 603 44 109 421 170 1052 2426 2392 2452 2766 3172 3333 3426 3534 3591 3648 3676 3606 3580 3679 3736 3569 3382 2927 2908
0 0 0 10 615 1593 2054 2236 1779 970 407 500 531 815 1924 2536 2533 2672 2645 3220 3529 3635 3722 3731 3734 3712 3716 3692 3651 3747 3567 3176 3016
0 0 0 0 0 290 1357 1799 2319 2473 1374 1108 1607 1247 2124 3144 2956 2908 2733 2979 3342 3660 3799 3882 3856 3858 3802 3673 3757 3776 3571 3188 2595
0 0 0 0 0 0 584 1294 2618 3517 2966 1932 1200 1237 2046 2489 3284 3039 3181 2195 2300 3513 3349 3359 3890 3856 3724 3715 3478 3374 3411 3431 2752
0 0 0 0 0 0 191 1107 2082 2599 3348 3563 3564 2809 1989 3850 3734 3522 3077 2179 1338 138 772 1019 1967 3189 3649 2253 2315 1994 2188 2540 2582
0 0 0 0 0 0 334 1211 1586 2399 2351 2628 2948 3607 3318 2728 3819 3793 3147 2475 2248 1975 337 37 650 1080 1542 2244 1391 1055 1063 1066 940

GFSFLT1_con_mlcape_060.txt.gz
CAPE
9 153 76 22 55 59 20 85 193 162 78 204 409 447 398 462 404 391 244 101 91 0 33 334 478 838 1274 1472 1417 1306 1007 1014 1033
9 171 112 43 70 119 63 133 201 258 187 138 395 394 457 479 539 395 254 208 47 10 74 329 696 890 1227 1360 1571 1434 1270 1082 1171
118 267 292 179 105 181 124 126 225 325 324 213 207 489 410 328 411 706 805 306 181 186 71 170 757 1057 1063 1253 1329 1457 1333 1357 1401
258 417 419 319 185 180 150 116 257 384 471 369 339 396 603 567 433 254 444 1005 630 190 187 456 643 852 1238 1312 1539 1453 1399 1230 1258
228 465 461 433 330 177 179 150 225 375 526 607 462 467 482 638 771 742 396 292 964 932 491 147 257 1310 1572 1228 1346 1670 1479 1309 1381
33 510 603 550 389 195 223 180 171 302 503 677 672 691 675 690 882 1011 958 635 411 753 874 610 254 496 1061 1904 1787 1605 1579 1555 1508
0 399 591 626 464 276 236 216 143 240 368 663 865 969 1011 863 818 1231 1501 1331 950 571 640 899 783 499 637 1273 1896 1840 1506 1422 1619
0 214 567 697 588 381 328 276 176 175 296 456 830 1031 1077 1063 1109 1056 1417 1723 1645 1276 868 797 861 876 887 1014 1265 1630 1807 1593 1457
0 184 682 795 726 498 401 352 276 150 276 410 708 927 984 1088 1274 1505 1370 1468 1725 1898 1690 1330 1216 1115 1096 1202 1317 1516 1580 1800 1792
0 166 629 873 797 645 527 429 369 265 309 342 741 943 963 1222 1404 1535 1775 1800 1835 1901 1934 1817 1509 1534 1374 1099 1585 1806 1766 1762 1942
16 26 83 200 497 658 678 538 426 348 324 457 487 754 1220 1345 1605 1761 1909 2080 2095 2110 2197 2270 2116 1755 1787 1943 1837 1754 1828 1910 2102
383 483 323 39 2 183 497 750 847 651 512 564 636 668 699 1334 1755 1937 2148 2297 2360 2388 2517 2548 2563 2576 2422 2173 2262 2261 2066 1924 2163
54 246 665 985 1153 1093 382 49 842 1255 1121 973 882 926 1031 1084 1413 1969 2171 2304 2453 2588 2678 2693 2769 2772 2821 2828 2733 2540 2275 2265 2597
0 0 223 951 1302 1436 1636 1230 211 497 1798 1740 1648 1575 1351 1421 1518 1600 2049 2360 2574 2598 2755 2807 2815 2836 2861 2874 2897 2930 2472 2320 2855
0 0 0 0 431 1138 1276 1653 1785 1348 844 805 918 2254 2165 2125 2113 2036 2213 2387 2579 2736 2798 2956 2959 2961 2992 3017 3018 2903 2702 2498 2611
0 0 0 0 0 29 688 1285 2146 2103 2815 1573 509 584 740 1819 2283 2482 2678 2648 2658 2850 3001 3081 3194 3222 3154 3146 3271 3356 3030 2779 2705
0 0 0 0 0 0 5 596 1284 2343 2813 2996 1716 1015 692 1182 1696 2381 2544 2896 2937 2977 3139 3218 3292 3369 3389 3425 3492 3484 3379 2913 2546
0 0 0 0 0 0 0 15 656 1303 2295 2272 2887 2717 2077 1642 2019 2090 2610 2546 2489 3067 3210 3179 3364 3425 3521 3558 3534 3453 3554 3415 2984
0 0 0 0 0 0 0 0 0 176 1212 1924 1805 1843 2663 2747 2773 2206 2808 2162 1448 161 608 1213 1980 2753 3508 3397 3071 3176 3131 3059 3004
0 0 0 0 0 0 0 0 0 0 109 537 1111 1096 1028 2017 2626 2976 2731 2534 2071 2020 436 296 797 1548 2859 3035 3074 2121 2136 2111 1883

GFSFLT1_con_mlcape_063.txt.gz
CAPE
52 64 47 86 124 232 163 182 137 35 21 31 84 128 124 115 58 19 13 9 5 24 41 93 62 364 1162 1193 1126 1083 900 880 642
0 7 30 70 113 106 129 231 242 90 81 73 84 103 134 165 131 94 35 19 20 0 10 89 173 199 413 799 1017 1252 1182 1136 748
0 0 27 50 46 84 37 136 202 131 33 119 181 182 159 141 148 121 147 57 40 5 5 35 134 155 464 718 917 1159 1341 1330 1097
2 7 24 33 48 48 68 41 114 205 95 12 108 264 239 196 213 236 214 165 106 135 37 5 12 218 438 869 1073 1155 1189 1266 1368
0 0 47 71 36 44 67 60 104 187 181 89 40 127 189 209 235 283 389 446 179 105 70 89 135 64 325 703 1076 1245 1234 1184 1227
0 3 91 118 103 64 49 79 90 167 224 170 76 35 159 294 280 233 177 271 624 583 315 167 123 313 573 803 915 1012 1196 1207 1237
0 0 54 184 232 187 71 86 88 157 224 260 226 158 158 252 423 450 394 273 190 354 575 514 405 327 359 515 755 1287 1518 1503 1472
0 0 0 190 279 326 165 96 82 98 181 302 402 309 327 346 347 486 602 606 539 347 396 519 455 336 337 581 601 706 1048 1657 1613
0 0 33 167 302 376 276 159 124 82 138 285 457 487 466 452 493 547 689 852 867 842 647 517 621 534 297 285 644 719 667 896 1353
0 0 152 195 355 435 341 194 135 113 124 207 450 562 617 717 781 738 742 983 1293 1313 1111 997 705 771 764 556 559 653 697 847 1075
23 8 203 302 489 512 372 241 167 119 60 185 331 578 741 884 949 1016 1150 1098 1144 1326 1547 1472 1230 1018 1084 1080 1052 1041 844 784 1045
60 341 554 401 371 422 356 308 238 139 94 193 367 512 711 872 1030 1040 1208 1442 1405 1410 1567 1768 1757 1603 1457 1467 1511 1268 1138 1117 1342
10 109 638 1004 612 376 419 331 327 268 245 271 352 509 733 902 1000 1157 1324 1378 1561 1680 1885 1859 2041 2189 2216 1929 1839 1815 1616 1355 1625
0 0 50 448 1021 950 829 596 558 511 432 480 482 417 476 684 1188 1325 1540 1725 1880 2010 2124 2263 2362 2416 2473 2526 2459 2407 1915 1704 2128
0 0 0 3 512 1129 1733 2115 1777 1355 989 723 797 809 790 815 863 1177 1548 1708 1920 2129 2336 2431 2508 2570 2610 2672 2736 2568 2387 2076 2005
0 0 0 0 0 18 596 1405 2157 1981 1998 838 713 1658 1973 1694 1420 1341 1310 1659 1922 2227 2385 2450 2562 2635 2641 2713 2785 2825 2503 2323 2201
0 0 0 0 0 0 0 157 862 1864 2101 2280 2054 1611 1461 1841 2082 2264 2101 2021 2086 2276 2494 2563 2632 2762 2815 2882 2943 2998 2952 2448 2262
0 0 0 0 0 0 0 0 0 76 947 1608 1766 1682 1926 2155 2259 2106 2155 2554 2460 2659 2695 2678 2771 2770 2878 2963 3047 3145 3139 3153 2928
0 0 0 0 0 0 0 0 0 0 7 193 435 1008 1108 1123 1527 2093 2659 2213 1549 371 883 1255 1657 2126 2801 3144 3131 3179 3130 3075 3059
0 0 0 0 0 0 0 0 0 0 0 0 19 148 251 327 585 983 1801 2264 2057 1887 666 183 834 1420 2001 2221 3255 3034 2889 2819 2643

GFSFLT1_con_mlcape_069.txt.gz
CAPE
156 378 306 308 286 205 137 140 149 105 112 90 25 33 70 80 132 176 146 235 226 172 105 91 399 489 645 955 1365 1574 1729 1645 1559
19 47 380 396 374 304 222 176 149 112 161 164 117 58 97 94 89 86 151 223 236 206 236 58 52 175 369 573 881 1260 1685 1600 1667
0 8 47 309 407 366 320 249 171 129 100 159 199 134 142 203 227 248 234 268 202 219 249 193 86 82 200 453 667 892 1211 1416 1748
0 1 26 125 473 485 404 245 212 177 86 129 177 169 195 210 308 333 313 249 284 311 271 288 299 276 265 550 690 888 1052 1107 1355
0 33 33 106 356 506 471 416 272 197 142 119 140 196 241 242 327 370 346 317 331 343 318 305 304 337 222 303 505 742 921 889 1248
0 0 33 110 120 284 498 566 479 371 263 180 157 194 248 293 353 414 388 399 432 366 367 330 317 355 320 177 516 650 896 1029 1181
0 0 0 28 76 122 301 399 597 506 460 325 261 255 307 397 440 455 467 492 514 444 432 422 379 386 353 343 366 448 471 764 1016
0 0 0 0 13 67 148 307 424 610 562 488 366 382 444 533 565 582 618 697 638 593 538 543 548 506 487 495 547 405 481 637 898
0 0 0 0 9 59 122 185 322 518 618 587 442 465 525 633 674 684 681 721 745 788 691 579 605 525 510 522 597 303 141 365 684
0 0 0 9 109 40 176 202 271 386 587 654 497 463 522 660 759 774 748 783 783 820 886 987 867 801 787 705 728 359 78 70 363
0 0 0 0 25 240 141 266 314 431 533 634 589 491 485 576 740 742 790 798 795 740 707 735 828 901 1003 944 920 535 127 35 341
0 0 0 0 293 510 10 268 437 492 581 687 631 571 573 592 626 705 859 919 931 917 950 926 839 828 890 874 867 542 201 93 401
0 0 0 54 795 381 81 395 427 557 654 710 659 693 694 752 748 752 808 869 906 1004 1105 1138 1292 1281 1314 1089 874 818 342 234 767
0 0 1 29 727 817 645 509 571 589 708 640 810 921 961 945 888 887 955 1017 1119 1243 1386 1554 1761 1700 1846 1834 1578 1376 774 458 1044
0 0 0 0 90 345 865 614 586 608 638 809 802 930 966 1045 1093 1106 1287 1361 1421 1455 1510 1591 1723 1863 2005 2164 2363 1922 1529 940 921
0 0 0 0 1 86 198 737 984 759 966 634 706 819 911 1056 1195 1304 1398 1512 1626 1845 2023 1883 2024 2110 2134 2227 2408 2736 2072 1447 1135
0 0 0 0 0 0 3 105 316 651 1134 1003 651 642 843 1035 1182 1336 1478 1682 1766 1830 1959 2162 2154 2320 2426 2532 2707 2889 3005 2361 1599
0 0 0 0 0 0 0 0 0 56 394 1395 1857 1735 1493 916 1047 1104 1641 1699 1849 1972 2129 2220 2413 2547 2688 2835 2970 3019 2955 3066 2913
0 0 0 0 0 0 0 0 0 0 0 77 681 1162 1490 1771 2521 2318 1938 1824 1583 731 918 1198 1412 1681 2235 2968 2734 2734 2524 2366 2451
0 0 0 0 0 0 0 0 0 0 0 0 0 28 350 578 1064 1900 2626 2534 2224 2185 1424 793 949 1092 1275 1316 2056 2078 2148 2329 2099

GFSFLT1_con_mlcape_075.txt.gz
CAPE
529 610 585 595 570 562 576 610 737 632 744 1150 1068 628 425 371 801 295 141 965 422 180 155 145 1646 1680 1357 1361 1716 1324 1638 1707 1487
538 690 691 708 706 658 597 656 942 892 882 1177 1247 771 716 753 655 348 202 842 1170 938 670 251 373 561 1343 1259 1110 1360 1860 1498 1584
166 493 515 597 825 776 670 604 711 1034 1023 1312 1431 862 1149 1025 896 883 919 1328 1558 1112 950 899 824 859 804 1068 1046 1309 1705 1385 1782
31 93 299 359 477 703 813 747 642 786 1087 1357 1471 1266 1063 950 1112 940 992 1134 1474 1283 1414 1418 1329 1183 1102 788 859 1380 1843 1762 1368
6 8 98 135 352 524 747 870 857 820 831 869 1247 1279 1214 1171 1401 1293 1363 1154 1115 1420 1630 1918 1808 1833 1506 1231 808 1250 1748 1710 1091
12 21 16 1 67 448 685 903 1052 984 917 873 923 1331 1316 1452 1468 1561 1422 1483 1366 1339 1620 1979 1918 2072 2123 1792 1272 1141 1619 1930 1804
42 12 0 0 55 279 758 1021 1338 1388 1087 990 953 984 1066 1432 1735 1763 1571 1592 1676 1678 1896 2120 2137 2314 2370 2148 1828 1320 1053 1451 1895
4 0 36 0 51 208 467 980 1598 1622 1257 1343 1154 1241 1103 1420 1874 1910 1898 1707 1851 2028 2089 2178 2316 2455 2452 2302 1927 1451 1276 1105 1365
70 35 74 145 167 241 462 795 1250 1753 1591 1616 1438 1484 1222 1289 1801 2111 2027 1892 1962 2135 2196 2231 2406 2413 2474 2347 1758 952 773 1067 1038
24 4 38 118 304 416 413 321 855 1496 1884 1649 1614 1865 1491 1394 1838 2140 2200 2136 2178 2301 2341 2419 2367 2551 2559 2528 2519 1098 595 440 972
0 0 0 0 70 333 443 346 306 724 1349 1953 1891 1830 2122 1676 1945 2246 2402 2469 2503 2546 2622 2452 2493 2672 2744 2717 2617 1910 1075 572 761
0 0 0 0 0 100 442 623 604 472 1111 1711 2084 2212 2165 2144 2101 2327 2648 2590 2692 2806 2857 2858 2852 3051 2885 2825 2641 1892 1366 1055 1247
0 0 0 0 0 169 531 777 1143 871 758 1466 2201 2138 2324 2549 2339 2578 2793 2840 2736 2873 2965 2836 2442 2679 3020 2981 2892 2583 1534 1179 1454
0 0 0 0 0 134 934 1349 1972 1724 1123 1304 1958 2073 2363 2705 2684 2771 2949 3074 3129 3131 2947 2423 2792 2722 2949 3061 2855 3128 2182 1353 1799
0 0 0 0 0 5 233 1656 2555 2046 1515 1681 1976 2164 2407 2531 2829 2634 2668 3122 3271 3188 3160 2989 3101 2849 2888 2421 2856 2639 2219 1594 1525
0 0 0 0 0 0 0 22 1756 1322 1803 2002 2042 2341 2438 2584 2610 2724 2534 3036 3263 3002 3152 2533 2496 2564 2385 1936 1807 2640 2126 1460 1378
0 0 0 0 0 0 0 0 0 138 813 1858 2045 2395 2608 2639 2645 2699 2559 2690 2877 2623 2471 2574 2176 2257 2168 2002 1683 1722 2606 2253 1441
0 0 0 0 2 3 2 0 0 0 0 336 2104 2174 2236 2484 2462 2438 2665 2563 2413 2506 2346 2211 2275 1781 1984 2168 2377 2435 2473 2836 3048
0 0 0 0 7 0 0 0 0 0 0 0 731 1986 2308 2413 2387 2588 2539 2310 2154 1368 1651 1362 1388 1460 1885 2557 1671 1963 2138 2346 2588
0 0 0 0 0 0 0 0 0 0 0 0 0 276 1511 2548 2490 2654 2519 2553 2551 2435 1464 1231 1467 1530 1589 1568 1593 1786 1909 2120 2003